Location: Norton
(51.3000°N, 0.8167°E)
Time: 14:05:42
(UTC+00:00)

MetOp-B - Pass Details

Date: 03 March 2021
Orbit: 819 x 821 km, 98.7° (Epoch: 11 April)

Event Time Altitude Azimuth Distance (km) Brightness Sun altitude
Exits shadow 20:49:48 73° 317° (NW) 861 4.2 -29.3°
Drops below altitude 10° 20:54:43 10° 343° (NNW) 2,431 7.1 -30.0°
Sets 20:57:05 0° 345° (NNW) 3,369 8.0 -30.3°
